Yankton, SD

5:53 AM CDT on August 30, 2016 (GMT -0500)
Gurney Municipal

Weather History for KYKN - April, 2013

Change the Weather History Date:

Tuesday, April 30, 2013

  Actual Average Record
Temperature  
Mean Temperature 60 °F -  
Max Temperature 69 °F 65 °F 91 °F (2007)
Min Temperature 51 °F 39 °F 25 °F (1956)
Degree Days  
Heating Degree Days 5    
Growing Degree Days 10 (Base 50)    
Moisture  
Dew Point 37 °F    
Average Humidity 44    
Maximum Humidity 71    
Minimum Humidity 18    
Precipitation  
Precipitation 0.00 in - - ()
Sea Level Pressure  
Sea Level Pressure 29.70 in    
Wind  
Wind Speed 15 mph (NW)    
Max Wind Speed 30 mph    
Max Gust Speed 40 mph    
Visibility 10 miles    
Events      
Averages and records for this station are not official NWS values.
T = Trace of Precipitation, MM = Missing Value Source: NWS Daily Summary

Daily Weather History Graph

Daily Weather History Graph

Search for Another Location

Airport or City:

Trip Planner

Search our weather history database for the weather conditions in past years. The results will help you decide how hot, cold, wet, or windy it might be!

Date:

Astronomy

Apr. 30, 2013 Rise Set
Actual Time 6:24 AM CDT 8:29 PM CDT
Civil Twilight 5:53 AM CDT 9:00 PM CDT
Nautical Twilight 5:15 AM CDT 9:38 PM CDT
Astronomical Twilight 4:34 AM CDT 10:20 PM CDT
Moon 12:55 AM CDT 10:53 AM CDT
Length of Visible Light 15h 06m
Length of Day
14h 05m
Waning Gibbous, 70% of the Moon is Illuminated
Apr 30
Waning Gibbous
May 2
Last Quarter
May 9
New
May 17
First Quarter
May 24
Full

Hourly Weather History & Observations

Time (CDT) Temp. Dew Point Humidity Pressure Visibility Wind Dir Wind Speed Gust Speed Precip Events Conditions
12:15 AM 69.8 °F 46.4 °F 43% 29.42 in 10.0 mi SSE 11.5 mph - N/A   Clear
12:35 AM 68.0 °F 46.4 °F 46% 29.41 in 10.0 mi SSE 8.1 mph - N/A   Clear
12:55 AM 68.0 °F 46.4 °F 46% 29.40 in 10.0 mi SSE 9.2 mph - N/A   Clear
1:15 AM 68.0 °F 48.2 °F 49% 29.39 in 10.0 mi South 8.1 mph - N/A   Clear
1:35 AM 69.8 °F 48.2 °F 46% 29.39 in 10.0 mi South 15.0 mph 20.7 mph N/A   Clear
1:55 AM 69.8 °F 48.2 °F 46% 29.38 in 10.0 mi South 13.8 mph 19.6 mph N/A   Clear
2:15 AM 69.8 °F 51.8 °F 53% 29.39 in 10.0 mi SSW 10.4 mph 27.6 mph N/A   Clear
2:35 AM 69.8 °F 51.8 °F 53% 29.38 in 10.0 mi South 11.5 mph - N/A   Clear
2:55 AM 69.8 °F 51.8 °F 53% 29.39 in 10.0 mi SW 9.2 mph - N/A   Clear
3:15 AM 68.0 °F 51.8 °F 56% 29.39 in 10.0 mi SW 11.5 mph - N/A   Clear
3:35 AM 68.0 °F 53.6 °F 60% 29.39 in 10.0 mi SSW 13.8 mph - N/A   Clear
3:55 AM 69.8 °F 53.6 °F 56% 29.43 in 10.0 mi WSW 19.6 mph 31.1 mph N/A   Clear
4:15 AM 68.0 °F 53.6 °F 60% 29.44 in 10.0 mi WSW 16.1 mph - N/A   Clear
4:35 AM 68.0 °F 48.2 °F 49% 29.46 in 10.0 mi WSW 25.3 mph 36.8 mph N/A   Clear
4:55 AM 59.0 °F 42.8 °F 55% 29.50 in 10.0 mi West 26.5 mph 40.3 mph N/A   Clear
5:15 AM 55.4 °F 42.8 °F 63% 29.52 in 10.0 mi WNW 29.9 mph 38.0 mph N/A   Clear
5:35 AM 53.6 °F 42.8 °F 67% 29.53 in 10.0 mi WNW 28.8 mph 34.5 mph N/A   Clear
5:55 AM 53.6 °F 42.8 °F 67% 29.54 in 10.0 mi NW 27.6 mph 33.4 mph N/A   Clear
6:15 AM 51.8 °F 42.8 °F 71% 29.56 in 10.0 mi NW 20.7 mph 27.6 mph N/A   Clear
6:35 AM 53.6 °F 42.8 °F 67% 29.59 in 10.0 mi NW 23.0 mph 32.2 mph N/A   Clear
6:55 AM 51.8 °F 42.8 °F 71% 29.61 in 10.0 mi NW 18.4 mph 27.6 mph N/A   Clear
7:15 AM 51.8 °F 42.8 °F 71% 29.62 in 10.0 mi WNW 18.4 mph 29.9 mph N/A   Clear
7:35 AM 53.6 °F 42.8 °F 67% 29.66 in 10.0 mi NW 10.4 mph 21.9 mph N/A   Clear
7:55 AM 53.6 °F 42.8 °F 67% 29.67 in 10.0 mi WNW 23.0 mph 28.8 mph N/A   Clear
8:15 AM 53.6 °F 42.8 °F 67% 29.68 in 10.0 mi WNW 18.4 mph 23.0 mph N/A   Clear
8:35 AM 53.6 °F 42.8 °F 67% 29.69 in 10.0 mi NW 15.0 mph 21.9 mph N/A   Clear
8:55 AM 53.6 °F 42.8 °F 67% 29.71 in 10.0 mi NW 15.0 mph - N/A   Clear
9:15 AM 55.4 °F 42.8 °F 63% 29.70 in 10.0 mi NW 16.1 mph 24.2 mph N/A   Clear
9:35 AM 55.4 °F 42.8 °F 63% 29.70 in 10.0 mi NW 17.3 mph 21.9 mph N/A   Clear
9:55 AM 57.2 °F 41.0 °F 55% 29.71 in 10.0 mi NW 18.4 mph 25.3 mph N/A   Clear
10:15 AM 57.2 °F 41.0 °F 55% 29.72 in 10.0 mi NW 16.1 mph - N/A   Clear
10:35 AM 57.2 °F 41.0 °F 55% 29.72 in 10.0 mi NW 17.3 mph - N/A   Clear
10:55 AM 57.2 °F 42.8 °F 59% 29.74 in 10.0 mi NW 21.9 mph - N/A   Clear
11:15 AM 59.0 °F 39.2 °F 48% 29.74 in 10.0 mi NNW 19.6 mph 26.5 mph N/A   Clear
11:35 AM 60.8 °F 39.2 °F 45% 29.73 in 10.0 mi NNW 20.7 mph 25.3 mph N/A   Clear
11:55 AM 60.8 °F 35.6 °F 39% 29.76 in 10.0 mi NW 19.6 mph 27.6 mph N/A   Clear
12:15 PM 60.8 °F 35.6 °F 39% 29.75 in 10.0 mi NW 17.3 mph 24.2 mph N/A   Clear
12:35 PM 62.6 °F 37.4 °F 39% 29.75 in 10.0 mi NW 23.0 mph 27.6 mph N/A   Clear
12:55 PM 64.4 °F 35.6 °F 34% 29.75 in 10.0 mi NNW 17.3 mph 26.5 mph N/A   Clear
1:15 PM 64.4 °F 30.2 °F 28% 29.75 in 10.0 mi NNW 16.1 mph 26.5 mph N/A   Clear
1:35 PM 64.4 °F 28.4 °F 26% 29.76 in 10.0 mi NW 18.4 mph - N/A   Clear
1:55 PM 62.6 °F 26.6 °F 26% 29.77 in 10.0 mi NNW 16.1 mph 27.6 mph N/A   Clear
2:15 PM 62.6 °F 26.6 °F 26% 29.78 in 10.0 mi NW 15.0 mph - N/A   Clear
2:35 PM 62.6 °F 24.8 °F 24% 29.79 in 10.0 mi NNW 12.7 mph - N/A   Clear
3:15 PM 66.2 °F 24.8 °F 21% 29.82 in 10.0 mi WNW 11.5 mph - N/A   Clear
3:35 PM 66.2 °F 21.2 °F 18% 29.82 in 10.0 mi NW 11.5 mph 16.1 mph N/A   Clear
3:55 PM 66.2 °F 21.2 °F 18% 29.81 in 10.0 mi NNW 9.2 mph - N/A   Clear
4:15 PM 66.2 °F 21.2 °F 18% 29.82 in 10.0 mi NNW 9.2 mph 18.4 mph N/A   Clear
4:35 PM 66.2 °F 21.2 °F 18% 29.82 in 10.0 mi NNW 10.4 mph 16.1 mph N/A   Clear
4:55 PM 66.2 °F 23.0 °F 19% 29.83 in 10.0 mi North 13.8 mph 19.6 mph N/A   Clear
5:15 PM 66.2 °F 24.8 °F 21% 29.84 in 10.0 mi NNW 13.8 mph - N/A   Clear
5:35 PM 66.2 °F 24.8 °F 21% 29.85 in 10.0 mi NNW 13.8 mph - N/A   Clear
5:55 PM 64.4 °F 26.6 °F 24% 29.85 in 10.0 mi NNW 17.3 mph - N/A   Scattered Clouds
6:15 PM 64.4 °F 24.8 °F 22% 29.86 in 10.0 mi NNW 17.3 mph 21.9 mph N/A   Partly Cloudy
6:35 PM 62.6 °F 26.6 °F 26% 29.86 in 10.0 mi North 17.3 mph - N/A   Clear
6:55 PM 62.6 °F 24.8 °F 24% 29.86 in 10.0 mi NNW 15.0 mph - N/A   Clear
7:15 PM 62.6 °F 24.8 °F 24% 29.87 in 10.0 mi NNW 11.5 mph - N/A   Clear
7:35 PM 62.6 °F 24.8 °F 24% 29.88 in 10.0 mi North 12.7 mph - N/A   Clear
7:55 PM 60.8 °F 26.6 °F 27% 29.89 in 10.0 mi NNW 10.4 mph - N/A   Clear
8:15 PM 60.8 °F 26.6 °F 27% 29.90 in 10.0 mi NNW 12.7 mph - N/A   Clear
8:35 PM 59.0 °F 26.6 °F 29% 29.91 in 10.0 mi NNW 23.0 mph 27.6 mph N/A   Clear
8:55 PM 55.4 °F 30.2 °F 38% 29.93 in 10.0 mi NNW 21.9 mph - N/A   Clear
9:15 PM 53.6 °F 32.0 °F 44% 29.94 in 10.0 mi NNW 13.8 mph - N/A   Clear
9:35 PM 53.6 °F 32.0 °F 44% 29.92 in 10.0 mi NNW 15.0 mph - N/A   Clear
9:55 PM 53.6 °F 32.0 °F 44% 29.94 in 10.0 mi NNW 13.8 mph - N/A   Partly Cloudy
10:15 PM 55.4 °F 32.0 °F 41% 29.94 in 10.0 mi NNW 19.6 mph 26.5 mph N/A   Mostly Cloudy
10:35 PM 53.6 °F 30.2 °F 41% 29.98 in 10.0 mi NNW 19.6 mph 29.9 mph N/A   Overcast
10:55 PM 53.6 °F 30.2 °F 41% 29.99 in 10.0 mi NNW 19.6 mph 24.2 mph N/A   Overcast
11:15 PM 53.6 °F 32.0 °F 44% 30.00 in 10.0 mi NNW 21.9 mph 29.9 mph N/A   Mostly Cloudy
11:35 PM 51.8 °F 33.8 °F 50% 30.04 in 10.0 mi NNW 19.6 mph 26.5 mph N/A   Mostly Cloudy